| time (UTC) | temp C | wind direction | speed KPH | gust KPH | rain 1hr cm | rain 24hr cm | rain mn cm | humidity % | barometer mb |
| 20260505224553 | 15 | 207 | 3.2 | 4.8 | 0.00 | 0.00 | 0.00 | 72 | 1015.7 |
| 20260505224051 | 16 | 210 | 4.8 | 6.4 | 0.00 | 0.00 | 0.00 | 71 | 1015.6 |
| 20260505223548 | 16 | 234 | 3.2 | 11.3 | 0.00 | 0.00 | 0.00 | 70 | 1015.8 |
| 20260505223044 | 16 | 199 | 0.0 | 3.2 | 0.00 | 0.00 | 0.00 | 71 | 1015.6 |
| 20260505222540 | 16 | 170 | 1.6 | 4.8 | 0.00 | 0.00 | 0.00 | 71 | 1015.6 |
| 20260505222036 | 16 | 147 | 0.0 | 3.2 | 0.00 | 0.00 | 0.00 | 72 | 1015.7 |
| 20260505221534 | 16 | 178 | 3.2 | 3.2 | 0.00 | 0.00 | 0.00 | 71 | 1015.9 |
| 20260505221030 | 15 | 133 | 1.6 | 3.2 | 0.00 | 0.00 | 0.00 | 72 | 1015.9 |
| 20260505220527 | 15 | 136 | 3.2 | 3.2 | 0.00 | 0.00 | 0.00 | 72 | 1015.9 |
| 20260505220025 | 15 | 154 | 0.0 | 4.8 | 0.00 | 0.00 | 0.00 | 72 | 1016.1 |
| 20260505215523 | 15 | 144 | 1.6 | 1.6 | 0.00 | 0.00 | 0.00 | 72 | 1015.8 |
| 20260505215021 | 15 | 181 | 3.2 | 6.4 | 0.00 | 0.00 | 0.00 | 72 | 1016.2 |
| 20260505214519 | 15 | 139 | 1.6 | 1.6 | 0.00 | 0.00 | 0.00 | 73 | 1016.0 |
| 20260505214015 | 15 | 139 | 0.0 | 4.8 | 0.00 | 0.00 | 0.00 | 72 | 1016.2 |
| 20260505213513 | 15 | 161 | 1.6 | 4.8 | 0.00 | 0.00 | 0.00 | 73 | 1016.0 |
| 20260505213009 | 15 | 132 | 1.6 | 3.2 | 0.00 | 0.00 | 0.00 | 72 | 1016.0 |
| 20260505212506 | 15 | 179 | 3.2 | 3.2 | 0.00 | 0.00 | 0.00 | 73 | 1016.1 |
| 20260505212003 | 15 | 148 | 3.2 | 4.8 | 0.00 | 0.00 | 0.00 | 73 | 1016.0 |
| 20260505211500 | 15 | 222 | 6.4 | 6.4 | 0.00 | 0.00 | 0.00 | 72 | 1016.0 |
| 20260505210956 | 15 | 143 | 1.6 | 3.2 | 0.00 | 0.00 | 0.00 | 72 | 1016.1 |
| 20260505210453 | 15 | 161 | 3.2 | 9.7 | 0.00 | 0.00 | 0.00 | 73 | 1016.2 |
| 20260505205950 | 15 | 139 | 3.2 | 6.4 | 0.00 | 0.00 | 0.00 | 73 | 1016.0 |
| 20260505205449 | 15 | 156 | 1.6 | 1.6 | 0.00 | 0.00 | 0.00 | 75 | 1016.3 |
| 20260505204945 | 15 | 143 | 1.6 | 3.2 | 0.00 | 0.00 | 0.00 | 76 | 1016.2 |
| 20260505204443 | 15 | 165 | 1.6 | 3.2 | 0.00 | 0.00 | 0.00 | 74 | 1016.1 |
| 20260505203940 | 14 | 182 | 3.2 | 9.7 | 0.00 | 0.00 | 0.00 | 75 | 1016.2 |
| 20260505203436 | 14 | 161 | 1.6 | 3.2 | 0.00 | 0.00 | 0.00 | 75 | 1016.4 |
| 20260505202933 | 14 | 193 | 1.6 | 3.2 | 0.00 | 0.00 | 0.00 | 76 | 1016.2 |
| 20260505202429 | 15 | 166 | 3.2 | 4.8 | 0.00 | 0.00 | 0.00 | 74 | 1016.3 |
| 20260505201926 | 15 | 148 | 1.6 | 3.2 | 0.00 | 0.00 | 0.00 | 75 | 1016.0 |
| 20260505201423 | 15 | 167 | 1.6 | 3.2 | 0.00 | 0.00 | 0.00 | 75 | 1016.3 |
| 20260505200921 | 15 | 149 | 1.6 | 4.8 | 0.00 | 0.00 | 0.00 | 75 | 1015.9 |
| 20260505200418 | 15 | 153 | 1.6 | 3.2 | 0.00 | 0.00 | 0.00 | 74 | 1016.1 |
| 20260505195913 | 15 | 171 | 1.6 | 3.2 | 0.00 | 0.00 | 0.00 | 76 | 1016.2 |
| 20260505195411 | 14 | 148 | 0.0 | 4.8 | 0.00 | 0.00 | 0.00 | 77 | 1016.3 |
| 20260505194908 | 14 | 191 | 1.6 | 3.2 | 0.00 | 0.00 | 0.00 | 76 | 1016.3 |
| 20260505194406 | 14 | 177 | 0.0 | 3.2 | 0.00 | 0.00 | 0.00 | 75 | 1016.0 |
| 20260505193905 | 14 | 155 | 0.0 | 0.0 | 0.00 | 0.00 | 0.00 | 77 | 1016.1 |
| 20260505193404 | 14 | 147 | 0.0 | 1.6 | 0.00 | 0.00 | 0.00 | 76 | 1016.1 |
| 20260505192901 | 14 | 223 | 1.6 | 6.4 | 0.00 | 0.00 | 0.00 | 75 | 1016.4 |
| 20260505192359 | 14 | 134 | 1.6 | 3.2 | 0.00 | 0.00 | 0.00 | 77 | 1016.2 |
| 20260505191856 | 14 | 154 | 3.2 | 6.4 | 0.00 | 0.00 | 0.00 | 75 | 1016.2 |
| 20260505191355 | 14 | 174 | 1.6 | 3.2 | 0.00 | 0.00 | 0.00 | 76 | 1016.1 |
| 20260505190851 | 14 | 163 | 1.6 | 1.6 | 0.00 | 0.00 | 0.00 | 76 | 1016.1 |
| 20260505190347 | 14 | 146 | 1.6 | 4.8 | 0.00 | 0.00 | 0.00 | 76 | 1016.1 |
| 20260505185842 | 13 | 117 | 0.0 | 3.2 | 0.00 | 0.00 | 0.00 | 77 | 1016.0 |
| 20260505185339 | 13 | 120 | 3.2 | 4.8 | 0.00 | 0.00 | 0.00 | 77 | 1016.0 |
| 20260505184835 | 14 | 191 | 3.2 | 6.4 | 0.00 | 0.00 | 0.00 | 76 | 1016.0 |
| 20260505184332 | 14 | 157 | 1.6 | 1.6 | 0.00 | 0.00 | 0.00 | 76 | 1016.0 |
| 20260505183829 | 13 | 110 | 1.6 | 4.8 | 0.00 | 0.00 | 0.00 | 78 | 1016.1 |
| 20260505183326 | 13 | 121 | 1.6 | 3.2 | 0.00 | 0.00 | 0.00 | 78 | 1016.0 |
| 20260505182823 | 14 | 163 | 6.4 | 9.7 | 0.00 | 0.00 | 0.00 | 76 | 1016.1 |
| 20260505182320 | 14 | 133 | 0.0 | 1.6 | 0.00 | 0.00 | 0.00 | 77 | 1016.2 |
| 20260505181816 | 13 | 142 | 0.0 | 4.8 | 0.00 | 0.00 | 0.00 | 77 | 1016.1 |
| 20260505181314 | 13 | 147 | 1.6 | 3.2 | 0.00 | 0.00 | 0.00 | 77 | 1016.0 |
| 20260505180810 | 13 | 189 | 3.2 | 4.8 | 0.00 | 0.00 | 0.00 | 77 | 1015.8 |
| 20260505180307 | 13 | 128 | 0.0 | 3.2 | 0.00 | 0.00 | 0.00 | 77 | 1015.9 |
| 20260505175803 | 13 | 131 | 0.0 | 1.6 | 0.00 | 0.00 | 0.00 | 78 | 1016.0 |
| 20260505175300 | 13 | 148 | 1.6 | 3.2 | 0.00 | 0.00 | 0.00 | 78 | 1016.0 |
| 20260505174756 | 13 | 131 | 1.6 | 3.2 | 0.00 | 0.00 | 0.00 | 78 | 1016.2 |
| 20260505174253 | 13 | 156 | 0.0 | 3.2 | 0.00 | 0.00 | 0.00 | 78 | 1016.1 |
| 20260505173749 | 13 | 134 | 1.6 | 1.6 | 0.00 | 0.00 | 0.00 | 78 | 1016.0 |
| 20260505173246 | 13 | 129 | 0.0 | 1.6 | 0.00 | 0.00 | 0.00 | 79 | 1016.0 |
| 20260505172743 | 13 | 149 | 0.0 | 1.6 | 0.00 | 0.00 | 0.00 | 79 | 1015.9 |
| 20260505172240 | 13 | 138 | 0.0 | 1.6 | 0.00 | 0.00 | 0.00 | 79 | 1015.9 |
| 20260505171740 | 13 | 137 | 1.6 | 3.2 | 0.00 | 0.00 | 0.00 | 79 | 1015.9 |
| 20260505171237 | 13 | 171 | 1.6 | 1.6 | 0.00 | 0.00 | 0.00 | 80 | 1015.8 |
| 20260505170734 | 13 | 162 | 0.0 | 1.6 | 0.00 | 0.00 | 0.00 | 80 | 1015.9 |
| 20260505170231 | 13 | 170 | 3.2 | 3.2 | 0.00 | 0.00 | 0.00 | 79 | 1015.9 |
| 20260505165726 | 13 | 146 | 0.0 | 3.2 | 0.00 | 0.00 | 0.00 | 81 | 1015.7 |
| 20260505165222 | 12 | 151 | 0.0 | 1.6 | 0.00 | 0.00 | 0.00 | 81 | 1015.8 |
| 20260505164718 | 12 | 148 | 1.6 | 6.4 | 0.00 | 0.00 | 0.00 | 82 | 1015.8 |
| 20260505164215 | 12 | 172 | 3.2 | 9.7 | 0.00 | 0.00 | 0.00 | 81 | 1015.9 |
| 20260505163713 | 12 | 151 | 0.0 | 1.6 | 0.00 | 0.00 | 0.00 | 82 | 1015.8 |
| 20260505163212 | 12 | 139 | 0.0 | 3.2 | 0.00 | 0.00 | 0.00 | 82 | 1015.7 |
| 20260505162709 | 12 | 200 | 3.2 | 4.8 | 0.00 | 0.00 | 0.00 | 81 | 1015.6 |
| 20260505162206 | 12 | 146 | 1.6 | 6.4 | 0.00 | 0.00 | 0.00 | 81 | 1015.6 |
| 20260505161702 | 12 | 127 | 1.6 | 3.2 | 0.00 | 0.00 | 0.00 | 81 | 1015.8 |
| 20260505161200 | 12 | 163 | 1.6 | 1.6 | 0.00 | 0.00 | 0.00 | 81 | 1015.8 |
| 20260505160658 | 12 | 129 | 3.2 | 4.8 | 0.00 | 0.00 | 0.00 | 81 | 1015.5 |
| 20260505160155 | 12 | 122 | 0.0 | 1.6 | 0.00 | 0.00 | 0.00 | 81 | 1015.6 |
| 20260505153134 | 12 | 201 | 6.4 | 6.4 | 0.00 | 0.00 | 0.00 | 81 | 1015.5 |
| 20260505152631 | 12 | 117 | 1.6 | 3.2 | 0.00 | 0.00 | 0.00 | 82 | 1015.4 |
| 20260505152127 | 12 | 194 | 1.6 | 3.2 | 0.00 | 0.00 | 0.00 | 82 | 1015.5 |
| 20260505151622 | 12 | 199 | 3.2 | 6.4 | 0.00 | 0.00 | 0.00 | 82 | 1015.2 |
| 20260505151120 | 12 | 142 | 0.0 | 1.6 | 0.00 | 0.00 | 0.00 | 83 | 1015.3 |
| 20260505150616 | 12 | 211 | 3.2 | 4.8 | 0.00 | 0.00 | 0.00 | 82 | 1015.2 |
| 20260505150113 | 12 | 189 | 1.6 | 3.2 | 0.00 | 0.00 | 0.00 | 83 | 1015.3 |
| 20260505140541 | 12 | 212 | 1.6 | 3.2 | 0.00 | 0.00 | 0.00 | 84 | 1014.8 |
| 20260505124955 | 12 | 143 | 0.0 | 3.2 | 0.00 | 0.00 | 0.00 | 83 | 1013.9 |
| 20260505124451 | 12 | 150 | 0.0 | 1.6 | 0.00 | 0.00 | 0.00 | 84 | 1014.0 |
| 20260505123947 | 12 | 182 | 3.2 | 3.2 | 0.00 | 0.00 | 0.00 | 84 | 1013.8 |
| 20260505123444 | 12 | 157 | 0.0 | 3.2 | 0.00 | 0.00 | 0.00 | 84 | 1013.6 |
| 20260505122940 | 12 | 149 | 0.0 | 1.6 | 0.00 | 0.00 | 0.00 | 84 | 1013.9 |
| 20260505122438 | 12 | 138 | 0.0 | 11.3 | 0.00 | 0.00 | 0.00 | 84 | 1013.9 |
| 20260505121934 | 12 | 146 | 1.6 | 6.4 | 0.00 | 0.00 | 0.00 | 84 | 1013.9 |
| 20260505121432 | 12 | 170 | 1.6 | 3.2 | 0.00 | 0.00 | 0.00 | 84 | 1013.8 |
| 20260505120927 | 12 | 145 | 0.0 | 3.2 | 0.00 | 0.00 | 0.00 | 85 | 1013.8 |
| 20260505120424 | 12 | 134 | 1.6 | 3.2 | 0.00 | 0.00 | 0.00 | 85 | 1013.6 |
| 20260505115923 | 12 | 198 | 3.2 | 3.2 | 0.00 | 0.00 | 0.00 | 85 | 1013.7 |
| 20260505115420 | 12 | 140 | 0.0 | 4.8 | 0.00 | 0.00 | 0.00 | 85 | 1013.7 |
| 20260505114918 | 12 | 150 | 0.0 | 1.6 | 0.00 | 0.00 | 0.00 | 85 | 1013.5 |
| 20260505114414 | 12 | 156 | 1.6 | 12.9 | 0.00 | 0.00 | 0.00 | 85 | 1013.4 |
| 20260505113910 | 12 | 169 | 1.6 | 1.6 | 0.00 | 0.00 | 0.00 | 85 | 1013.4 |
| 20260505113407 | 12 | 205 | 4.8 | 6.4 | 0.00 | 0.00 | 0.00 | 85 | 1013.5 |
| 20260505112903 | 12 | 141 | 0.0 | 1.6 | 0.00 | 0.00 | 0.00 | 85 | 1013.3 |
| 20260505112400 | 12 | 148 | 1.6 | 1.6 | 0.00 | 0.00 | 0.00 | 85 | 1013.4 |
| 20260505111856 | 12 | 147 | 0.0 | 3.2 | 0.00 | 0.00 | 0.00 | 85 | 1013.7 |
| 20260505111351 | 12 | 153 | 1.6 | 6.4 | 0.00 | 0.00 | 0.00 | 85 | 1013.5 |
| 20260505110847 | 12 | 205 | 3.2 | 4.8 | 0.00 | 0.00 | 0.00 | 85 | 1013.5 |
| 20260505110345 | 12 | 139 | 4.8 | 6.4 | 0.00 | 0.00 | 0.00 | 85 | 1013.3 |
| 20260505101815 | 12 | 191 | 1.6 | 3.2 | 0.00 | 0.00 | 0.00 | 87 | 1013.1 |
| 20260505101310 | 11 | 157 | 3.2 | 9.7 | 0.00 | 0.00 | 0.00 | 86 | 1013.0 |
| 20260505100806 | 12 | 161 | 4.8 | 6.4 | 0.00 | 0.00 | 0.00 | 86 | 1013.2 |
| 20260505100303 | 12 | 199 | 6.4 | 11.3 | 0.00 | 0.00 | 0.00 | 87 | 1013.2 |
| 20260505095759 | 12 | 221 | 4.8 | 6.4 | 0.00 | 0.00 | 0.00 | 87 | 1013.0 |
| 20260505095257 | 11 | 173 | 1.6 | 3.2 | 0.00 | 0.00 | 0.00 | 87 | 1012.8 |
| 20260505094752 | 11 | 157 | 1.6 | 4.8 | 0.00 | 0.00 | 0.00 | 87 | 1013.0 |
| 20260505094249 | 11 | 144 | 1.6 | 12.9 | 0.00 | 0.00 | 0.00 | 87 | 1013.1 |
| 20260505093745 | 11 | 236 | 3.2 | 4.8 | 0.00 | 0.00 | 0.00 | 87 | 1013.1 |
| 20260505093243 | 11 | 153 | 0.0 | 4.8 | 0.00 | 0.00 | 0.00 | 87 | 1012.8 |
| 20260505092739 | 11 | 189 | 3.2 | 9.7 | 0.00 | 0.00 | 0.00 | 87 | 1012.7 |
| 20260505092238 | 11 | 131 | 0.0 | 3.2 | 0.00 | 0.00 | 0.00 | 87 | 1012.8 |
| 20260505091735 | 11 | 182 | 4.8 | 6.4 | 0.00 | 0.00 | 0.00 | 88 | 1012.5 |
| 20260505091233 | 11 | 154 | 0.0 | 4.8 | 0.00 | 0.00 | 0.00 | 88 | 1012.5 |
| 20260505090730 | 11 | 130 | 1.6 | 6.4 | 0.00 | 0.00 | 0.00 | 87 | 1012.6 |
| 20260505090229 | 11 | 133 | 1.6 | 3.2 | 0.00 | 0.00 | 0.00 | 87 | 1012.7 |
| 20260505085725 | 11 | 171 | 1.6 | 4.8 | 0.00 | 0.00 | 0.00 | 87 | 1012.5 |
| 20260505085224 | 11 | 139 | 1.6 | 6.4 | 0.00 | 0.00 | 0.00 | 87 | 1012.4 |
| 20260505084721 | 11 | 150 | 3.2 | 9.7 | 0.00 | 0.00 | 0.00 | 87 | 1012.4 |
| 20260505084220 | 11 | 140 | 3.2 | 9.7 | 0.00 | 0.00 | 0.00 | 87 | 1012.3 |
| 20260505083716 | 11 | 153 | 1.6 | 6.4 | 0.00 | 0.00 | 0.00 | 87 | 1012.4 |
| 20260505083213 | 11 | 186 | 1.6 | 9.7 | 0.00 | 0.00 | 0.00 | 87 | 1012.4 |
| 20260505082709 | 11 | 245 | 3.2 | 9.7 | 0.00 | 0.00 | 0.00 | 87 | 1012.4 |
| 20260505082206 | 11 | 186 | 1.6 | 9.7 | 0.00 | 0.00 | 0.00 | 86 | 1012.3 |
| 20260505081702 | 12 | 150 | 3.2 | 6.4 | 0.00 | 0.00 | 0.00 | 86 | 1012.5 |
| 20260505081159 | 12 | 138 | 3.2 | 3.2 | 0.00 | 0.00 | 0.00 | 86 | 1012.3 |
| 20260505080656 | 12 | 154 | 1.6 | 1.6 | 0.00 | 0.00 | 0.00 | 86 | 1012.3 |
| 20260505080152 | 12 | 148 | 0.0 | 1.6 | 0.00 | 0.00 | 0.00 | 86 | 1012.5 |
| 20260505075648 | 12 | 153 | 0.0 | 3.2 | 0.00 | 0.00 | 0.00 | 86 | 1012.2 |
| 20260505075145 | 12 | 180 | 1.6 | 4.8 | 0.00 | 0.00 | 0.00 | 86 | 1012.3 |
| 20260505074642 | 12 | 145 | 1.6 | 3.2 | 0.00 | 0.00 | 0.00 | 85 | 1012.1 |
| 20260505074139 | 12 | 150 | 3.2 | 6.4 | 0.00 | 0.00 | 0.00 | 85 | 1012.2 |
| 20260505073637 | 12 | 149 | 0.0 | 4.8 | 0.00 | 0.00 | 0.00 | 85 | 1012.0 |
| 20260505073135 | 12 | 140 | 0.0 | 6.4 | 0.00 | 0.00 | 0.00 | 85 | 1011.9 |
| 20260505072630 | 12 | 144 | 1.6 | 6.4 | 0.00 | 0.00 | 0.00 | 85 | 1011.9 |
| 20260505072127 | 12 | 126 | 0.0 | 4.8 | 0.00 | 0.00 | 0.00 | 85 | 1011.9 |
| 20260505071623 | 12 | 145 | 1.6 | 9.7 | 0.00 | 0.00 | 0.00 | 85 | 1011.7 |
| 20260505071121 | 12 | 117 | 3.2 | 6.4 | 0.00 | 0.00 | 0.00 | 84 | 1011.7 |
| 20260505070618 | 12 | 217 | 4.8 | 6.4 | 0.00 | 0.00 | 0.00 | 84 | 1011.6 |
| 20260505070114 | 12 | 134 | 1.6 | 3.2 | 0.00 | 0.00 | 0.00 | 84 | 1011.9 |
| 20260505065610 | 12 | 181 | 3.2 | 4.8 | 0.00 | 0.00 | 0.00 | 84 | 1011.8 |
| 20260505065106 | 12 | 162 | 1.6 | 11.3 | 0.00 | 0.00 | 0.00 | 83 | 1011.5 |
| 20260505064603 | 12 | 110 | 1.6 | 3.2 | 0.00 | 0.00 | 0.00 | 83 | 1011.7 |
| 20260505064102 | 12 | 198 | 3.2 | 3.2 | 0.00 | 0.00 | 0.00 | 83 | 1011.6 |
| 20260505063559 | 12 | 148 | 1.6 | 4.8 | 0.00 | 0.00 | 0.00 | 83 | 1011.5 |
| 20260505063055 | 12 | 146 | 4.8 | 6.4 | 0.00 | 0.00 | 0.00 | 82 | 1011.4 |
| 20260505062551 | 12 | 172 | 1.6 | 9.7 | 0.00 | 0.00 | 0.00 | 82 | 1011.3 |
| 20260505062049 | 13 | 138 | 0.0 | 9.7 | 0.00 | 0.00 | 0.00 | 82 | 1011.4 |
| 20260505061546 | 13 | 159 | 3.2 | 6.4 | 0.00 | 0.00 | 0.00 | 81 | 1011.4 |
| 20260505061044 | 13 | 226 | 4.8 | 11.3 | 0.00 | 0.00 | 0.00 | 81 | 1011.4 |
| 20260505060541 | 13 | 170 | 1.6 | 6.4 | 0.00 | 0.00 | 0.00 | 81 | 1011.1 |
| 20260505060037 | 13 | 197 | 3.2 | 6.4 | 0.00 | 0.00 | 0.00 | 81 | 1011.3 |
| 20260505055533 | 13 | 139 | 1.6 | 6.4 | 0.00 | 0.00 | 0.00 | 80 | 1011.2 |
| 20260505055030 | 13 | 163 | 1.6 | 9.7 | 0.00 | 0.00 | 0.00 | 80 | 1011.3 |
| 20260505054527 | 13 | 199 | 3.2 | 9.7 | 0.00 | 0.00 | 0.00 | 80 | 1011.0 |
| 20260505054025 | 13 | 143 | 0.0 | 3.2 | 0.00 | 0.00 | 0.00 | 79 | 1011.0 |
| 20260505053522 | 13 | 123 | 3.2 | 4.8 | 0.00 | 0.00 | 0.00 | 79 | 1010.9 |
| 20260505053019 | 13 | 140 | 6.4 | 11.3 | 0.00 | 0.00 | 0.00 | 78 | 1011.0 |
| 20260505052516 | 13 | 171 | 1.6 | 4.8 | 0.00 | 0.00 | 0.00 | 78 | 1011.0 |
| 20260505052013 | 13 | 147 | 1.6 | 1.6 | 0.00 | 0.00 | 0.00 | 77 | 1010.8 |
| 20260505051510 | 14 | 195 | 3.2 | 9.7 | 0.00 | 0.00 | 0.00 | 77 | 1010.9 |
| 20260505051008 | 14 | 138 | 1.6 | 3.2 | 0.00 | 0.00 | 0.00 | 76 | 1010.9 |
| 20260505050506 | 14 | 175 | 1.6 | 4.8 | 0.00 | 0.00 | 0.00 | 75 | 1010.7 |
| 20260505041433 | 16 | 156 | 3.2 | 4.8 | 0.00 | 0.00 | 0.00 | 69 | 1010.1 |
| 20260505040931 | 16 | 218 | 3.2 | 6.4 | 0.00 | 0.00 | 0.00 | 68 | 1010.0 |
| 20260505040428 | 16 | 135 | 1.6 | 4.8 | 0.00 | 0.00 | 0.00 | 68 | 1010.0 |
| 20260505035925 | 17 | 145 | 1.6 | 3.2 | 0.00 | 0.00 | 0.00 | 67 | 1009.9 |
| 20260505035421 | 17 | 152 | 1.6 | 4.8 | 0.00 | 0.00 | 0.00 | 66 | 1009.9 |
| 20260505034918 | 17 | 148 | 3.2 | 4.8 | 0.00 | 0.00 | 0.00 | 65 | 1009.8 |
| 20260505034414 | 17 | 141 | 0.0 | 4.8 | 0.00 | 0.00 | 0.00 | 65 | 1009.8 |
| 20260505033912 | 17 | 141 | 1.6 | 3.2 | 0.00 | 0.00 | 0.00 | 64 | 1009.7 |
| 20260505033408 | 18 | 121 | 3.2 | 6.4 | 0.00 | 0.00 | 0.00 | 63 | 1009.6 |
| 20260505032907 | 18 | 146 | 1.6 | 4.8 | 0.00 | 0.00 | 0.00 | 62 | 1009.5 |
| 20260505032403 | 18 | 193 | 4.8 | 6.4 | 0.00 | 0.00 | 0.00 | 61 | 1009.6 |
| 20260505031900 | 18 | 140 | 1.6 | 3.2 | 0.00 | 0.00 | 0.00 | 60 | 1009.4 |
| 20260505031357 | 19 | 192 | 1.6 | 9.7 | 0.00 | 0.00 | 0.00 | 60 | 1009.4 |
| 20260505030854 | 20 | 122 | 1.6 | 4.8 | 0.00 | 0.00 | 0.00 | 58 | 1009.5 |
| 20260505030349 | 20 | 126 | 3.2 | 6.4 | 0.00 | 0.00 | 0.00 | 57 | 1009.3 |
| 20260505025845 | 20 | 144 | 0.0 | 1.6 | 0.00 | 0.00 | 0.00 | 56 | 1009.3 |
| 20260505025343 | 20 | 147 | 1.6 | 4.8 | 0.00 | 0.00 | 0.00 | 55 | 1009.1 |
| 20260505024842 | 21 | 141 | 1.6 | 9.7 | 0.00 | 0.00 | 0.00 | 54 | 1009.0 |
| 20260505024339 | 21 | 148 | 0.0 | 1.6 | 0.00 | 0.00 | 0.00 | 54 | 1009.1 |
| 20260505023836 | 21 | 155 | 3.2 | 9.7 | 0.00 | 0.00 | 0.00 | 53 | 1009.1 |
| 20260505023332 | 21 | 163 | 1.6 | 3.2 | 0.00 | 0.00 | 0.00 | 52 | 1009.2 |
| 20260505022830 | 22 | 190 | 6.4 | 9.7 | 0.00 | 0.00 | 0.00 | 49 | 1009.3 |
| 20260505022327 | 22 | 152 | 1.6 | 3.2 | 0.00 | 0.00 | 0.00 | 49 | 1009.1 |
| 20260505021824 | 22 | 181 | 3.2 | 4.8 | 0.00 | 0.00 | 0.00 | 47 | 1009.1 |
| 20260505021321 | 22 | 157 | 3.2 | 6.4 | 0.00 | 0.00 | 0.00 | 47 | 1009.1 |
| 20260505020816 | 22 | 169 | 1.6 | 6.4 | 0.00 | 0.00 | 0.00 | 47 | 1009.4 |
| 20260505020312 | 23 | 147 | 3.2 | 9.7 | 0.00 | 0.00 | 0.00 | 46 | 1009.0 |
| 20260505015809 | 23 | 188 | 8.0 | 9.7 | 0.00 | 0.00 | 0.00 | 46 | 1009.0 |
| 20260505015306 | 23 | 185 | 3.2 | 4.8 | 0.00 | 0.00 | 0.00 | 46 | 1009.1 |
| 20260505014804 | 23 | 170 | 6.4 | 9.7 | 0.00 | 0.00 | 0.00 | 46 | 1009.0 |
| 20260505014301 | 23 | 173 | 3.2 | 6.4 | 0.00 | 0.00 | 0.00 | 47 | 1009.1 |
| 20260505013757 | 24 | 184 | 4.8 | 11.3 | 0.00 | 0.00 | 0.00 | 45 | 1009.0 |
| 20260505013254 | 24 | 152 | 1.6 | 4.8 | 0.00 | 0.00 | 0.00 | 45 | 1009.1 |
| 20260505012753 | 24 | 166 | 1.6 | 3.2 | 0.00 | 0.00 | 0.00 | 45 | 1009.1 |
| 20260505012250 | 24 | 183 | 1.6 | 3.2 | 0.00 | 0.00 | 0.00 | 46 | 1008.9 |
| 20260505011745 | 24 | 166 | 0.0 | 3.2 | 0.00 | 0.00 | 0.00 | 46 | 1008.9 |
| 20260505011242 | 24 | 129 | 3.2 | 3.2 | 0.00 | 0.00 | 0.00 | 45 | 1009.1 |
| 20260505010738 | 24 | 223 | 1.6 | 3.2 | 0.00 | 0.00 | 0.00 | 45 | 1009.1 |
| 20260505010234 | 24 | 170 | 6.4 | 6.4 | 0.00 | 0.00 | 0.00 | 44 | 1009.1 |
| 20260505005731 | 25 | 126 | 3.2 | 4.8 | 0.00 | 0.00 | 0.00 | 43 | 1009.2 |
| 20260505005228 | 25 | 165 | 4.8 | 6.4 | 0.00 | 0.00 | 0.00 | 44 | 1009.2 |
| 20260505004725 | 25 | 173 | 3.2 | 3.2 | 0.00 | 0.00 | 0.00 | 43 | 1009.1 |
| 20260505004222 | 25 | 185 | 3.2 | 3.2 | 0.00 | 0.00 | 0.00 | 42 | 1009.0 |
| 20260505003719 | 25 | 139 | 1.6 | 9.7 | 0.00 | 0.00 | 0.00 | 43 | 1009.1 |
| 20260505003217 | 25 | 196 | 3.2 | 6.4 | 0.00 | 0.00 | 0.00 | 42 | 1009.1 |
| 20260505002713 | 25 | 133 | 1.6 | 4.8 | 0.00 | 0.00 | 0.00 | 42 | 1009.2 |
| 20260505002210 | 26 | 110 | 9.7 | 11.3 | 0.00 | 0.00 | 0.00 | 40 | 1009.1 |
| 20260505001708 | 26 | 146 | 3.2 | 3.2 | 0.00 | 0.00 | 0.00 | 39 | 1009.1 |
| 20260505001205 | 25 | 168 | 1.6 | 4.8 | 0.00 | 0.00 | 0.00 | 39 | 1009.1 |
| 20260505000702 | 25 | 57 | 3.2 | 3.2 | 0.00 | 0.00 | 0.00 | 39 | 1009.3 |
| 20260505000200 | 26 | 173 | 3.2 | 4.8 | 0.00 | 0.00 | 0.00 | 36 | 1009.5 |
| 20260504235656 | 26 | 146 | 1.6 | 4.8 | 0.00 | 0.00 | 0.00 | 37 | 1009.2 |
| 20260504235152 | 27 | 140 | 0.0 | 3.2 | 0.00 | 0.00 | 0.00 | 36 | 1009.3 |
| 20260504234650 | 26 | 238 | 3.2 | 3.2 | 0.00 | 0.00 | 0.00 | 37 | 1009.3 |
| 20260504234147 | 26 | 168 | 0.0 | 3.2 | 0.00 | 0.00 | 0.00 | 37 | 1009.2 |
| 20260504233643 | 26 | 134 | 3.2 | 4.8 | 0.00 | 0.00 | 0.00 | 36 | 1009.1 |
| 20260504233139 | 27 | 126 | 3.2 | 4.8 | 0.00 | 0.00 | 0.00 | 36 | 1009.3 |
| 20260504232637 | 27 | 289 | 0.0 | 1.6 | 0.00 | 0.00 | 0.00 | 36 | 1009.5 |
| 20260504232133 | 27 | 141 | 0.0 | 3.2 | 0.00 | 0.00 | 0.00 | 36 | 1009.3 |
| 20260504231630 | 26 | 252 | 3.2 | 3.2 | 0.00 | 0.00 | 0.00 | 35 | 1009.2 |
| 20260504231126 | 26 | 141 | 1.6 | 4.8 | 0.00 | 0.00 | 0.00 | 35 | 1009.4 |
| 20260504230622 | 26 | 150 | 3.2 | 4.8 | 0.00 | 0.00 | 0.00 | 36 | 1009.4 |
| 20260504230122 | 26 | 145 | 3.2 | 4.8 | 0.00 | 0.00 | 0.00 | 36 | 1009.2 |
| 20260504225619 | 27 | 140 | 1.6 | 4.8 | 0.00 | 0.00 | 0.00 | 35 | 1009.6 |
| 20260504225115 | 26 | 175 | 3.2 | 3.2 | 0.00 | 0.00 | 0.00 | 36 | 1009.7 |